Time,TemperatureF,DewpointF,PressureIn,WindDirection,WindDirectionDegrees,WindSpeedMPH,WindSpeedGustMPH,Humidity,HourlyPrecipIn,Conditions,Clouds,dailyrainin,SoftwareType,DateUTC
2013-02-21 00:02:00,11.7,7.7,29.89,East,90,1.0,1.0,84,0.00,,,0.00,meteohub,2013-02-21 08:02:00,
2013-02-21 00:12:00,11.7,8.1,29.89,East,90,0.0,1.0,85,0.00,,,0.00,meteohub,2013-02-21 08:12:00,
2013-02-21 00:17:00,11.7,8.1,29.89,East,90,0.0,1.0,85,0.00,,,0.00,meteohub,2013-02-21 08:17:00,
2013-02-21 00:22:00,11.8,8.2,29.89,East,90,0.0,1.0,85,0.00,,,0.00,meteohub,2013-02-21 08:22:00,
2013-02-21 00:27:00,11.8,8.2,29.89,East,90,0.0,1.0,85,0.00,,,0.00,meteohub,2013-02-21 08:27:00,
2013-02-21 00:32:00,11.8,8.2,29.89,East,90,0.0,0.0,85,0.00,,,0.00,meteohub,2013-02-21 08:32:00,
2013-02-21 00:37:00,11.8,8.2,29.89,East,90,0.0,0.0,85,0.00,,,0.00,meteohub,2013-02-21 08:37:00,
2013-02-21 00:42:00,11.7,7.7,29.89,East,90,0.0,0.0,84,0.00,,,0.00,meteohub,2013-02-21 08:42:00,
2013-02-21 00:47:00,11.5,7.5,29.89,East,90,0.0,0.0,84,0.00,,,0.00,meteohub,2013-02-21 08:47:00,
2013-02-21 00:52:00,11.3,7.3,29.89,East,90,0.0,0.0,84,0.00,,,0.00,meteohub,2013-02-21 08:52:00,
2013-02-21 00:57:00,11.3,7.3,29.89,East,90,0.0,0.0,84,0.00,,,0.00,meteohub,2013-02-21 08:57:00,
2013-02-21 01:02:00,10.4,6.3,29.89,East,90,0.0,0.0,83,0.00,,,0.00,meteohub,2013-02-21 09:02:00,
2013-02-21 01:07:00,9.5,5.2,29.89,East,90,0.0,0.0,82,0.00,,,0.00,meteohub,2013-02-21 09:07:00,
2013-02-21 01:12:00,9.7,5.9,29.89,East,90,0.0,0.0,84,0.00,,,0.00,meteohub,2013-02-21 09:12:00,
2013-02-21 01:17:00,9.9,6.1,29.89,East,90,0.0,0.0,84,0.00,,,0.00,meteohub,2013-02-21 09:17:00,
2013-02-21 01:22:00,10.2,6.4,29.89,East,90,0.0,0.0,84,0.00,,,0.00,meteohub,2013-02-21 09:22:00,
2013-02-21 01:27:00,10.2,6.4,29.89,East,90,0.0,0.0,84,0.00,,,0.00,meteohub,2013-02-21 09:27:00,
2013-02-21 01:32:00,10.0,6.3,29.89,East,90,0.0,0.0,84,0.00,,,0.00,meteohub,2013-02-21 09:32:00,
2013-02-21 01:37:00,10.0,6.3,29.89,East,90,0.0,0.0,84,0.00,,,0.00,meteohub,2013-02-21 09:37:00,
2013-02-21 01:42:00,10.0,6.3,29.89,East,90,0.0,0.0,84,0.00,,,0.00,meteohub,2013-02-21 09:42:00,
2013-02-21 01:47:00,9.7,5.9,29.89,East,90,0.0,0.0,84,0.00,,,0.00,meteohub,2013-02-21 09:47:00,
2013-02-21 01:52:00,9.5,5.7,29.89,East,90,0.0,0.0,84,0.00,,,0.00,meteohub,2013-02-21 09:52:00,
2013-02-21 01:57:00,9.5,5.7,29.88,East,90,0.0,0.0,84,0.00,,,0.00,meteohub,2013-02-21 09:57:00,
2013-02-21 02:02:00,9.0,4.8,29.88,East,90,0.0,0.0,83,0.00,,,0.00,meteohub,2013-02-21 10:02:00,
2013-02-21 02:07:00,8.6,4.5,29.89,East,90,0.0,0.0,83,0.00,,,0.00,meteohub,2013-02-21 10:07:00,
2013-02-21 02:12:00,8.4,4.3,29.88,East,90,0.0,0.0,83,0.00,,,0.00,meteohub,2013-02-21 10:12:00,
2013-02-21 02:17:00,8.6,4.8,29.88,East,90,0.0,0.0,84,0.00,,,0.00,meteohub,2013-02-21 10:17:00,
2013-02-21 02:22:00,8.6,4.8,29.88,East,90,0.0,0.0,84,0.00,,,0.00,meteohub,2013-02-21 10:22:00,
2013-02-21 02:27:00,8.6,4.8,29.88,East,90,0.0,0.0,84,0.00,,,0.00,meteohub,2013-02-21 10:27:00,
2013-02-21 02:32:00,8.6,4.8,29.88,East,90,0.0,0.0,84,0.00,,,0.00,meteohub,2013-02-21 10:32:00,
2013-02-21 02:37:00,8.6,4.8,29.88,East,90,0.0,0.0,84,0.00,,,0.00,meteohub,2013-02-21 10:37:00,
2013-02-21 02:42:00,8.6,4.8,29.88,East,90,0.0,0.0,84,0.00,,,0.00,meteohub,2013-02-21 10:42:00,
2013-02-21 02:47:00,8.6,4.8,29.88,East,90,0.0,0.0,84,0.00,,,0.00,meteohub,2013-02-21 10:47:00,
2013-02-21 02:52:00,8.6,4.8,29.88,East,90,0.0,0.0,84,0.00,,,0.00,meteohub,2013-02-21 10:52:00,
2013-02-21 02:57:00,8.8,5.0,29.88,East,90,0.0,0.0,84,0.00,,,0.00,meteohub,2013-02-21 10:57:00,
2013-02-21 03:02:00,8.6,4.8,29.88,East,90,0.0,0.0,84,0.00,,,0.00,meteohub,2013-02-21 11:02:00,
2013-02-21 03:07:00,8.4,4.6,29.88,East,90,0.0,0.0,84,0.00,,,0.00,meteohub,2013-02-21 11:07:00,
2013-02-21 03:12:00,8.4,4.6,29.88,East,90,0.0,0.0,84,0.00,,,0.00,meteohub,2013-02-21 11:12:00,
2013-02-21 03:17:00,8.4,4.6,29.88,East,90,0.0,0.0,84,0.00,,,0.00,meteohub,2013-02-21 11:17:00,
2013-02-21 03:22:00,8.4,4.6,29.88,East,90,0.0,0.0,84,0.00,,,0.00,meteohub,2013-02-21 11:22:00,
2013-02-21 03:27:00,8.6,4.8,29.87,East,90,0.0,0.0,84,0.00,,,0.00,meteohub,2013-02-21 11:27:00,
2013-02-21 03:32:00,8.6,4.8,29.87,East,90,0.0,0.0,84,0.00,,,0.00,meteohub,2013-02-21 11:32:00,
2013-02-21 03:37:00,8.6,4.8,29.87,East,90,0.0,0.0,84,0.00,,,0.00,meteohub,2013-02-21 11:37:00,
2013-02-21 03:42:00,8.6,4.8,29.87,East,90,0.0,0.0,84,0.00,,,0.00,meteohub,2013-02-21 11:42:00,
2013-02-21 03:47:00,8.8,5.0,29.87,East,90,0.0,0.0,84,0.00,,,0.00,meteohub,2013-02-21 11:47:00,
2013-02-21 03:52:00,8.8,5.0,29.88,East,90,0.0,0.0,84,0.00,,,0.00,meteohub,2013-02-21 11:52:00,
2013-02-21 03:57:00,9.0,5.2,29.87,East,90,0.0,0.0,84,0.00,,,0.00,meteohub,2013-02-21 11:57:00,
2013-02-21 04:02:00,9.0,5.2,29.88,East,90,0.0,0.0,84,0.00,,,0.00,meteohub,2013-02-21 12:02:00,
2013-02-21 04:07:00,9.1,5.4,29.87,East,90,0.0,0.0,84,0.00,,,0.00,meteohub,2013-02-21 12:07:00,
2013-02-21 04:12:00,9.3,5.5,29.88,East,90,0.0,0.0,84,0.00,,,0.00,meteohub,2013-02-21 12:12:00,
2013-02-21 04:17:00,9.0,5.2,29.87,East,90,0.0,0.0,84,0.00,,,0.00,meteohub,2013-02-21 12:17:00,
2013-02-21 04:22:00,9.0,5.2,29.88,East,90,0.0,0.0,84,0.00,,,0.00,meteohub,2013-02-21 12:22:00,
2013-02-21 04:27:00,9.1,5.4,29.88,East,90,0.0,0.0,84,0.00,,,0.00,meteohub,2013-02-21 12:27:00,
2013-02-21 04:32:00,9.0,5.2,29.87,East,90,0.0,0.0,84,0.00,,,0.00,meteohub,2013-02-21 12:32:00,
2013-02-21 04:37:00,9.0,5.2,29.88,East,90,0.0,0.0,84,0.00,,,0.00,meteohub,2013-02-21 12:37:00,
2013-02-21 04:42:00,9.1,5.4,29.87,East,90,0.0,0.0,84,0.00,,,0.00,meteohub,2013-02-21 12:42:00,
2013-02-21 04:47:00,9.3,5.5,29.87,East,90,0.0,0.0,84,0.00,,,0.00,meteohub,2013-02-21 12:47:00,
2013-02-21 04:52:00,9.1,5.4,29.87,East,90,0.0,0.0,84,0.00,,,0.00,meteohub,2013-02-21 12:52:00,
2013-02-21 04:57:00,9.3,5.5,29.87,East,90,0.0,0.0,84,0.00,,,0.00,meteohub,2013-02-21 12:57:00,
2013-02-21 05:02:00,9.3,5.5,29.87,East,90,0.0,0.0,84,0.00,,,0.00,meteohub,2013-02-21 13:02:00,
2013-02-21 05:07:00,9.3,5.5,29.88,East,90,0.0,0.0,84,0.00,,,0.00,meteohub,2013-02-21 13:07:00,
2013-02-21 05:12:00,9.3,5.5,29.88,East,90,0.0,0.0,84,0.00,,,0.00,meteohub,2013-02-21 13:12:00,
2013-02-21 05:17:00,9.5,5.7,29.87,East,90,0.0,0.0,84,0.00,,,0.00,meteohub,2013-02-21 13:17:00,
2013-02-21 05:22:00,9.1,5.4,29.87,East,90,0.0,0.0,84,0.00,,,0.00,meteohub,2013-02-21 13:22:00,
2013-02-21 05:27:00,9.1,5.4,29.88,East,90,0.0,0.0,84,0.00,,,0.00,meteohub,2013-02-21 13:27:00,
2013-02-21 05:32:00,9.0,5.2,29.87,East,90,0.0,0.0,84,0.00,,,0.00,meteohub,2013-02-21 13:32:00,
2013-02-21 05:37:00,9.0,5.2,29.87,East,90,0.0,0.0,84,0.00,,,0.00,meteohub,2013-02-21 13:37:00,
2013-02-21 05:42:00,9.3,5.5,29.88,East,90,0.0,0.0,84,0.00,,,0.00,meteohub,2013-02-21 13:42:00,
2013-02-21 05:47:00,8.6,4.5,29.87,East,90,0.0,0.0,83,0.00,,,0.00,meteohub,2013-02-21 13:47:00,
2013-02-21 05:52:00,8.6,4.8,29.87,East,90,0.0,0.0,84,0.00,,,0.00,meteohub,2013-02-21 13:52:00,
2013-02-21 05:57:00,8.8,5.0,29.88,East,90,0.0,0.0,84,0.00,,,0.00,meteohub,2013-02-21 13:57:00,
2013-02-21 06:02:00,8.6,4.5,29.87,East,90,0.0,0.0,83,0.00,,,0.00,meteohub,2013-02-21 14:02:00,
2013-02-21 06:07:00,8.6,4.8,29.88,East,90,0.0,0.0,84,0.00,,,0.00,meteohub,2013-02-21 14:07:00,
2013-02-21 06:12:00,8.8,5.0,29.88,East,90,1.0,0.0,84,0.00,,,0.00,meteohub,2013-02-21 14:12:00,
2013-02-21 06:17:00,9.1,5.4,29.87,East,90,1.0,2.0,84,0.00,,,0.00,meteohub,2013-02-21 14:17:00,
2013-02-21 06:22:00,9.1,5.4,29.87,East,90,1.0,2.0,84,0.00,,,0.00,meteohub,2013-02-21 14:22:00,
2013-02-21 06:27:00,9.3,5.5,29.87,East,90,0.0,2.0,84,0.00,,,0.00,meteohub,2013-02-21 14:27:00,
2013-02-21 06:32:00,9.0,5.2,29.88,East,90,1.0,1.0,84,0.00,,,0.00,meteohub,2013-02-21 14:32:00,
2013-02-21 06:37:00,8.8,5.0,29.88,East,90,1.0,1.0,84,0.00,,,0.00,meteohub,2013-02-21 14:37:00,
2013-02-21 06:42:00,9.0,4.8,29.88,East,90,2.0,2.0,83,0.00,,,0.00,meteohub,2013-02-21 14:42:00,
2013-02-21 06:47:00,8.6,4.5,29.88,East,90,0.0,2.0,83,0.00,,,0.00,meteohub,2013-02-21 14:47:00,
2013-02-21 06:52:00,8.2,4.1,29.88,North,0,2.0,2.0,83,0.00,,,0.00,meteohub,2013-02-21 14:52:00,
2013-02-21 06:57:00,9.1,5.4,29.88,SE,135,1.0,3.0,84,0.00,,,0.00,meteohub,2013-02-21 14:57:00,
2013-02-21 07:02:00,10.4,6.8,29.89,SE,135,2.0,3.0,85,0.00,,,0.00,meteohub,2013-02-21 15:02:00,
2013-02-21 07:07:00,11.5,7.9,29.88,South,180,2.0,3.0,85,0.00,,,0.00,meteohub,2013-02-21 15:07:00,
2013-02-21 07:12:00,13.1,9.5,29.88,South,180,2.0,2.0,85,0.00,,,0.00,meteohub,2013-02-21 15:12:00,
2013-02-21 07:17:00,14.2,10.6,29.88,NE,45,0.0,3.0,85,0.00,,,0.00,meteohub,2013-02-21 15:17:00,
2013-02-21 07:22:00,15.1,11.1,29.88,North,0,2.0,3.0,84,0.00,,,0.00,meteohub,2013-02-21 15:22:00,
2013-02-21 07:27:00,15.6,11.3,29.88,SE,135,0.0,3.0,83,0.00,,,0.00,meteohub,2013-02-21 15:27:00,
2013-02-21 07:32:00,16.9,12.9,29.88,SE,135,1.0,3.0,84,0.00,,,0.00,meteohub,2013-02-21 15:32:00,
2013-02-21 07:37:00,17.6,13.3,29.88,SE,135,1.0,2.0,83,0.00,,,0.00,meteohub,2013-02-21 15:37:00,
2013-02-21 07:42:00,18.5,14.2,29.88,SW,225,1.0,2.0,83,0.00,,,0.00,meteohub,2013-02-21 15:42:00,
2013-02-21 07:47:00,18.7,14.2,29.88,SW,225,2.0,2.0,82,0.00,,,0.00,meteohub,2013-02-21 15:47:00,
2013-02-21 07:52:00,19.2,14.7,29.89,SW,225,0.0,2.0,82,0.00,,,0.00,meteohub,2013-02-21 15:52:00,
2013-02-21 07:57:00,20.1,15.4,29.88,East,90,0.0,2.0,82,0.00,,,0.00,meteohub,2013-02-21 15:57:00,
2013-02-21 08:02:00,21.2,16.3,29.89,SW,225,2.0,2.0,81,0.00,,,0.00,meteohub,2013-02-21 16:02:00,
2013-02-21 08:07:00,21.9,17.1,29.89,NW,315,1.0,3.0,81,0.00,,,0.00,meteohub,2013-02-21 16:07:00,
2013-02-21 08:12:00,23.2,18.1,29.90,NW,315,0.0,3.0,81,0.00,,,0.00,meteohub,2013-02-21 16:12:00,
2013-02-21 08:17:00,24.1,18.9,29.89,NW,315,0.0,3.0,80,0.00,,,0.00,meteohub,2013-02-21 16:17:00,
2013-02-21 08:22:00,25.0,19.9,29.89,NW,315,0.0,2.0,81,0.00,,,0.00,meteohub,2013-02-21 16:22:00,
2013-02-21 08:27:00,25.5,19.6,29.89,NW,315,1.0,1.0,78,0.00,,,0.00,meteohub,2013-02-21 16:27:00,
2013-02-21 08:32:00,25.9,19.0,29.89,NW,315,1.0,1.0,75,0.00,,,0.00,meteohub,2013-02-21 16:32:00,
2013-02-21 08:37:00,26.6,19.8,29.88,NW,315,0.0,2.0,75,0.00,,,0.00,meteohub,2013-02-21 16:37:00,
2013-02-21 08:42:00,27.9,20.7,29.89,NW,315,0.0,2.0,74,0.00,,,0.00,meteohub,2013-02-21 16:42:00,
2013-02-21 08:47:00,28.2,21.0,29.89,NW,315,1.0,2.0,74,0.00,,,0.00,meteohub,2013-02-21 16:47:00,
2013-02-21 08:52:00,29.1,21.6,29.89,NW,315,0.0,2.0,73,0.00,,,0.00,meteohub,2013-02-21 16:52:00,
2013-02-21 08:57:00,29.1,20.5,29.89,NW,315,0.0,2.0,70,0.00,,,0.00,meteohub,2013-02-21 16:57:00,
2013-02-21 09:02:00,29.5,20.7,29.89,NW,315,1.0,2.0,69,0.00,,,0.00,meteohub,2013-02-21 17:02:00,
2013-02-21 09:07:00,29.5,16.9,29.90,NW,315,4.0,6.0,59,0.00,,,0.00,meteohub,2013-02-21 17:07:00,
2013-02-21 09:12:00,29.5,17.2,29.90,West,270,1.0,6.0,60,0.00,,,0.00,meteohub,2013-02-21 17:12:00,
2013-02-21 09:17:00,29.7,17.8,29.90,West,270,1.0,6.0,61,0.00,,,0.00,meteohub,2013-02-21 17:17:00,
2013-02-21 09:22:00,29.7,17.8,29.90,West,270,2.0,4.0,61,0.00,,,0.00,meteohub,2013-02-21 17:22:00,
2013-02-21 09:27:00,29.5,16.9,29.90,West,270,2.0,4.0,59,0.00,,,0.00,meteohub,2013-02-21 17:27:00,
2013-02-21 09:32:00,29.3,15.6,29.90,West,270,2.0,4.0,56,0.00,,,0.00,meteohub,2013-02-21 17:32:00,
2013-02-21 09:37:00,29.7,16.3,29.90,West,270,2.0,8.0,57,0.01,,,0.01,meteohub,2013-02-21 17:37:00,
2013-02-21 09:42:00,30.0,16.2,29.91,NW,315,2.0,8.0,56,0.02,,,0.02,meteohub,2013-02-21 17:42:00,
2013-02-21 09:47:00,30.6,16.3,29.91,West,270,4.0,8.0,55,0.04,,,0.02,meteohub,2013-02-21 17:47:00,
2013-02-21 09:52:00,29.3,14.7,29.92,West,270,2.0,4.0,54,0.04,,,0.04,meteohub,2013-02-21 17:52:00,
2013-02-21 09:57:00,28.0,14.4,29.91,SW,225,4.0,4.0,56,0.04,,,0.05,meteohub,2013-02-21 17:57:00,
2013-02-21 10:02:00,27.7,14.4,29.92,NW,315,3.0,6.0,57,0.06,,,0.06,meteohub,2013-02-21 18:02:00,
2013-02-21 10:07:00,28.2,16.2,29.91,SW,225,2.0,6.0,60,0.06,,,0.06,meteohub,2013-02-21 18:07:00,
2013-02-21 10:12:00,27.9,15.1,29.92,NW,315,1.0,5.0,58,0.07,,,0.07,meteohub,2013-02-21 18:12:00,
2013-02-21 10:17:00,27.1,14.7,29.92,West,270,4.0,4.0,59,0.07,,,0.07,meteohub,2013-02-21 18:17:00,
2013-02-21 10:22:00,27.1,15.4,29.92,West,270,2.0,4.0,61,0.07,,,0.07,meteohub,2013-02-21 18:22:00,
2013-02-21 10:27:00,27.5,15.8,29.92,West,270,4.0,4.0,61,0.07,,,0.07,meteohub,2013-02-21 18:27:00,
2013-02-21 10:32:00,27.9,16.5,29.93,West,270,2.0,4.0,62,0.08,,,0.08,meteohub,2013-02-21 18:32:00,
2013-02-21 10:37:00,27.5,16.5,29.93,West,270,2.0,4.0,63,0.07,,,0.08,meteohub,2013-02-21 18:37:00,
2013-02-21 10:42:00,27.3,16.7,29.93,West,270,1.0,4.0,64,0.06,,,0.08,meteohub,2013-02-21 18:42:00,
2013-02-21 10:47:00,27.7,17.4,29.92,West,270,3.0,3.0,65,0.05,,,0.08,meteohub,2013-02-21 18:47:00,
2013-02-21 10:52:00,28.0,17.8,29.92,West,270,1.0,3.0,65,0.04,,,0.08,meteohub,2013-02-21 18:52:00,
2013-02-21 10:57:00,27.9,17.2,29.92,West,270,2.0,3.0,64,0.04,,,0.08,meteohub,2013-02-21 18:57:00,
2013-02-21 11:02:00,27.7,17.4,29.92,West,270,4.0,4.0,65,0.02,,,0.08,meteohub,2013-02-21 19:02:00,
2013-02-21 11:07:00,28.0,17.8,29.92,West,270,1.0,4.0,65,0.04,,,0.09,meteohub,2013-02-21 19:07:00,
2013-02-21 11:12:00,27.9,16.5,29.92,West,270,2.0,4.0,62,0.02,,,0.09,meteohub,2013-02-21 19:12:00,
2013-02-21 11:17:00,27.5,16.2,29.92,West,270,4.0,4.0,62,0.02,,,0.09,meteohub,2013-02-21 19:17:00,
2013-02-21 11:22:00,27.7,16.7,29.91,West,270,2.0,4.0,63,0.04,,,0.11,meteohub,2013-02-21 19:22:00,
2013-02-21 11:27:00,27.5,16.5,29.91,West,270,2.0,4.0,63,0.04,,,0.11,meteohub,2013-02-21 19:27:00,
2013-02-21 11:32:00,27.7,16.7,29.91,West,270,2.0,4.0,63,0.02,,,0.11,meteohub,2013-02-21 19:32:00,
2013-02-21 11:37:00,27.9,16.9,29.91,NW,315,2.0,4.0,63,0.02,,,0.11,meteohub,2013-02-21 19:37:00,
2013-02-21 11:42:00,28.2,16.9,29.91,West,270,3.0,3.0,62,0.02,,,0.11,meteohub,2013-02-21 19:42:00,
2013-02-21 11:47:00,28.8,17.4,29.91,West,270,2.0,3.0,62,0.04,,,0.12,meteohub,2013-02-21 19:47:00,
2013-02-21 11:52:00,30.0,17.4,29.91,North,0,3.0,4.0,59,0.04,,,0.12,meteohub,2013-02-21 19:52:00,
2013-02-21 11:57:00,30.6,18.0,29.90,WSW,248,1.0,4.0,59,0.04,,,0.12,meteohub,2013-02-21 19:57:00,
2013-02-21 12:02:00,30.7,16.5,29.90,SE,135,4.0,4.0,55,0.04,,,0.12,meteohub,2013-02-21 20:02:00,
2013-02-21 12:07:00,30.6,15.4,29.90,SE,135,1.0,5.0,53,0.02,,,0.12,meteohub,2013-02-21 20:07:00,
2013-02-21 12:12:00,31.5,17.2,29.90,West,270,1.0,5.0,55,0.04,,,0.13,meteohub,2013-02-21 20:12:00,
2013-02-21 12:17:00,30.9,14.9,29.90,North,0,8.0,8.0,51,0.04,,,0.13,meteohub,2013-02-21 20:17:00,
2013-02-21 12:22:00,29.5,14.9,29.90,North,0,4.0,5.0,54,0.02,,,0.13,meteohub,2013-02-21 20:22:00,
2013-02-21 12:27:00,28.6,13.1,29.90,NE,45,8.0,8.0,52,0.02,,,0.13,meteohub,2013-02-21 20:27:00,
2013-02-21 12:32:00,28.6,13.1,29.90,ESE,113,3.0,8.0,52,0.02,,,0.13,meteohub,2013-02-21 20:32:00,
2013-02-21 12:37:00,28.2,12.9,29.89,SSE,158,7.0,12.0,52,0.02,,,0.13,meteohub,2013-02-21 20:37:00,
2013-02-21 12:42:00,28.2,12.9,29.90,ESE,113,3.0,12.0,52,0.01,,,0.13,meteohub,2013-02-21 20:42:00,
2013-02-21 12:47:00,28.0,13.1,29.89,East,90,4.0,12.0,53,0.02,,,0.14,meteohub,2013-02-21 20:47:00,
2013-02-21 12:52:00,28.0,13.5,29.90,NE,45,5.0,8.0,54,0.02,,,0.14,meteohub,2013-02-21 20:52:00,
2013-02-21 12:57:00,27.3,12.0,29.90,North,0,12.0,12.0,52,0.02,,,0.14,meteohub,2013-02-21 20:57:00,
2013-02-21 13:02:00,27.0,11.7,29.90,North,0,7.0,12.0,52,0.02,,,0.14,meteohub,2013-02-21 21:02:00,
2013-02-21 13:07:00,27.3,11.1,29.90,East,90,15.0,15.0,50,0.02,,,0.14,meteohub,2013-02-21 21:07:00,
2013-02-21 13:12:00,27.0,12.0,29.90,North,0,4.0,15.0,53,0.01,,,0.14,meteohub,2013-02-21 21:12:00,
2013-02-21 13:17:00,27.0,12.0,29.91,East,90,6.0,15.0,53,0.01,,,0.14,meteohub,2013-02-21 21:17:00,
2013-02-21 13:22:00,27.0,10.8,29.91,SE,135,8.0,15.0,50,0.01,,,0.14,meteohub,2013-02-21 21:22:00,
2013-02-21 13:27:00,27.0,10.8,29.91,SE,135,4.0,15.0,50,0.01,,,0.14,meteohub,2013-02-21 21:27:00,
2013-02-21 13:32:00,27.1,10.9,29.91,ENE,68,6.0,11.0,50,0.01,,,0.14,meteohub,2013-02-21 21:32:00,
2013-02-21 13:37:00,27.1,10.9,29.91,East,90,8.0,11.0,50,0.01,,,0.14,meteohub,2013-02-21 21:37:00,
2013-02-21 13:42:00,27.0,11.3,29.91,SE,135,3.0,10.0,51,0.00,,,0.14,meteohub,2013-02-21 21:42:00,
2013-02-21 13:47:00,27.1,10.9,29.91,East,90,7.0,10.0,50,0.00,,,0.14,meteohub,2013-02-21 21:47:00,
2013-02-21 13:52:00,27.3,10.8,29.91,NE,45,4.0,9.0,49,0.00,,,0.14,meteohub,2013-02-21 21:52:00,
2013-02-21 13:57:00,27.3,11.1,29.91,SE,135,12.0,12.0,50,0.00,,,0.14,meteohub,2013-02-21 21:57:00,
2013-02-21 14:02:00,27.0,11.3,29.91,East,90,3.0,12.0,51,0.00,,,0.14,meteohub,2013-02-21 22:02:00,
2013-02-21 14:07:00,27.5,10.8,29.91,East,90,6.0,12.0,49,0.00,,,0.14,meteohub,2013-02-21 22:07:00,
2013-02-21 14:12:00,28.0,12.7,29.91,NE,45,4.0,12.0,52,0.00,,,0.14,meteohub,2013-02-21 22:12:00,
2013-02-21 14:17:00,27.5,11.3,29.91,East,90,8.0,9.0,50,0.00,,,0.14,meteohub,2013-02-21 22:17:00,
2013-02-21 14:22:00,26.6,11.3,29.91,South,180,11.0,11.0,52,0.00,,,0.14,meteohub,2013-02-21 22:22:00,
2013-02-21 14:27:00,27.0,12.0,29.91,North,0,9.0,9.0,53,0.00,,,0.14,meteohub,2013-02-21 22:27:00,
2013-02-21 14:32:00,26.8,12.4,29.91,North,0,3.0,11.0,54,0.00,,,0.14,meteohub,2013-02-21 22:32:00,
2013-02-21 14:37:00,26.6,12.6,29.91,North,0,5.0,11.0,55,0.00,,,0.14,meteohub,2013-02-21 22:37:00,
2013-02-21 14:42:00,26.2,13.1,29.92,North,0,4.0,9.0,57,0.00,,,0.14,meteohub,2013-02-21 22:42:00,
2013-02-21 14:47:00,26.4,13.3,29.92,East,90,4.0,7.0,57,0.00,,,0.14,meteohub,2013-02-21 22:47:00,
2013-02-21 14:52:00,26.2,11.5,29.92,East,90,8.0,9.0,53,0.00,,,0.14,meteohub,2013-02-21 22:52:00,
2013-02-21 14:57:00,25.9,11.5,29.92,East,90,7.0,9.0,54,0.00,,,0.14,meteohub,2013-02-21 22:57:00,
2013-02-21 15:02:00,25.9,10.8,29.92,North,0,7.0,9.0,52,0.00,,,0.14,meteohub,2013-02-21 23:02:00,
2013-02-21 15:07:00,26.1,10.8,29.91,East,90,4.0,8.0,52,0.00,,,0.14,meteohub,2013-02-21 23:07:00,
2013-02-21 15:12:00,26.1,10.8,29.92,East,90,9.0,9.0,52,0.00,,,0.14,meteohub,2013-02-21 23:12:00,
2013-02-21 15:17:00,26.2,10.9,29.91,North,0,4.0,9.0,52,0.00,,,0.14,meteohub,2013-02-21 23:17:00,
2013-02-21 15:22:00,26.2,10.9,29.91,East,90,7.0,9.0,52,0.00,,,0.14,meteohub,2013-02-21 23:22:00,
2013-02-21 15:27:00,26.4,11.1,29.91,East,90,9.0,9.0,52,0.00,,,0.14,meteohub,2013-02-21 23:27:00,
2013-02-21 15:32:00,26.2,10.9,29.91,East,90,7.0,12.0,52,0.00,,,0.14,meteohub,2013-02-21 23:32:00,
2013-02-21 15:37:00,26.1,10.4,29.92,West,270,2.0,12.0,51,0.00,,,0.14,meteohub,2013-02-21 23:37:00,
2013-02-21 15:42:00,26.2,11.5,29.92,NE,45,6.0,12.0,53,0.00,,,0.14,meteohub,2013-02-21 23:42:00,
2013-02-21 15:47:00,26.2,11.5,29.92,SE,135,4.0,10.0,53,0.00,,,0.14,meteohub,2013-02-21 23:47:00,
2013-02-21 15:52:00,26.1,10.4,29.92,East,90,10.0,10.0,51,0.00,,,0.14,meteohub,2013-02-21 23:52:00,
2013-02-21 15:57:00,26.1,10.4,29.92,East,90,8.0,8.0,51,0.00,,,0.14,meteohub,2013-02-21 23:57:00,
2013-02-21 16:02:00,26.1,10.4,29.92,NNE,23,4.0,10.0,51,0.00,,,0.14,meteohub,2013-02-22 00:02:00,
2013-02-21 16:07:00,26.2,10.2,29.92,East,90,7.0,10.0,50,0.00,,,0.14,meteohub,2013-02-22 00:07:00,
2013-02-21 16:12:00,26.2,10.6,29.93,East,90,4.0,9.0,51,0.00,,,0.14,meteohub,2013-02-22 00:12:00,
2013-02-21 16:17:00,26.2,10.6,29.93,NE,45,4.0,10.0,51,0.00,,,0.14,meteohub,2013-02-22 00:17:00,
2013-02-21 16:22:00,26.2,10.9,29.93,NE,45,7.0,10.0,52,0.00,,,0.14,meteohub,2013-02-22 00:22:00,
2013-02-21 16:27:00,26.2,10.9,29.93,NNE,23,4.0,10.0,52,0.00,,,0.14,meteohub,2013-02-22 00:27:00,
2013-02-21 16:32:00,26.2,11.5,29.93,North,0,4.0,10.0,53,0.00,,,0.14,meteohub,2013-02-22 00:32:00,
2013-02-21 16:37:00,26.4,11.7,29.93,NE,45,7.0,10.0,53,0.00,,,0.14,meteohub,2013-02-22 00:37:00,
2013-02-21 16:42:00,26.2,11.8,29.93,North,0,4.0,9.0,54,0.00,,,0.14,meteohub,2013-02-22 00:42:00,
2013-02-21 16:47:00,26.2,12.2,29.94,West,270,2.0,9.0,55,0.00,,,0.14,meteohub,2013-02-22 00:47:00,
2013-02-21 16:52:00,26.1,12.6,29.94,North,-999,-999.0,7.0,56,0.00,,,0.14,meteohub,2013-02-22 00:52:00,
2013-02-21 16:57:00,26.1,12.6,29.94,North,-999,-999.0,4.0,56,0.00,,,0.14,meteohub,2013-02-22 00:57:00,
2013-02-21 17:02:00,25.9,12.0,29.94,North,-999,-999.0,4.0,55,0.00,,,0.14,meteohub,2013-02-22 01:02:00,
2013-02-21 17:07:00,25.7,11.8,29.94,NE,45,2.0,-999.0,55,0.00,,,0.14,meteohub,2013-02-22 01:07:00,
2013-02-21 17:12:00,25.5,11.1,29.94,North,0,2.0,4.0,54,0.00,,,0.14,meteohub,2013-02-22 01:12:00,
2013-02-21 17:17:00,25.3,10.9,29.94,North,0,2.0,7.0,54,0.00,,,0.14,meteohub,2013-02-22 01:17:00,
2013-02-21 17:22:00,25.3,10.6,29.94,North,0,3.0,7.0,53,0.00,,,0.14,meteohub,2013-02-22 01:22:00,
2013-02-21 17:27:00,25.2,10.4,29.94,North,0,2.0,7.0,53,0.00,,,0.14,meteohub,2013-02-22 01:27:00,
2013-02-21 17:32:00,25.0,9.9,29.94,North,0,4.0,7.0,52,0.00,,,0.14,meteohub,2013-02-22 01:32:00,
2013-02-21 17:37:00,24.8,9.7,29.94,North,0,1.0,7.0,52,0.00,,,0.14,meteohub,2013-02-22 01:37:00,
2013-02-21 17:42:00,24.8,9.3,29.94,East,90,3.0,4.0,51,0.00,,,0.14,meteohub,2013-02-22 01:42:00,
2013-02-21 17:47:00,24.6,9.1,29.95,East,90,2.0,4.0,51,0.00,,,0.14,meteohub,2013-02-22 01:47:00,
2013-02-21 17:52:00,24.4,8.4,29.95,SE,135,2.0,5.0,50,0.00,,,0.14,meteohub,2013-02-22 01:52:00,
2013-02-21 17:57:00,24.4,8.4,29.95,SE,135,2.0,5.0,50,0.00,,,0.14,meteohub,2013-02-22 01:57:00,
2013-02-21 18:03:00,24.3,8.8,29.95,SE,135,2.0,5.0,51,0.00,,,0.14,meteohub,2013-02-22 02:03:00,
2013-02-21 18:08:00,23.5,10.2,29.95,SE,135,1.0,4.0,56,0.00,,,0.14,meteohub,2013-02-22 02:08:00,
2013-02-21 18:13:00,22.6,10.0,29.96,SE,135,0.0,2.0,58,0.00,,,0.14,meteohub,2013-02-22 02:13:00,
2013-02-21 18:18:00,21.7,10.0,29.96,East,90,2.0,2.0,60,0.00,,,0.14,meteohub,2013-02-22 02:18:00,
2013-02-21 18:23:00,21.0,9.3,29.95,SE,135,2.0,5.0,60,0.00,,,0.14,meteohub,2013-02-22 02:23:00,
2013-02-21 18:28:00,20.3,9.0,29.95,SE,135,1.0,5.0,61,0.00,,,0.14,meteohub,2013-02-22 02:28:00,
2013-02-21 18:33:00,19.8,9.1,29.96,SE,135,0.0,5.0,63,0.00,,,0.14,meteohub,2013-02-22 02:33:00,
2013-02-21 18:38:00,19.2,9.0,29.96,SE,135,3.0,3.0,64,0.00,,,0.14,meteohub,2013-02-22 02:38:00,
2013-02-21 18:43:00,18.9,8.8,29.96,SE,135,1.0,3.0,64,0.00,,,0.14,meteohub,2013-02-22 02:43:00,
2013-02-21 18:48:00,18.5,8.4,29.96,SE,135,2.0,3.0,64,0.00,,,0.14,meteohub,2013-02-22 02:48:00,
2013-02-21 18:53:00,18.1,8.4,29.97,SE,135,2.0,4.0,65,0.00,,,0.14,meteohub,2013-02-22 02:53:00,
2013-02-21 18:58:00,17.8,8.1,29.96,SE,135,0.0,4.0,65,0.00,,,0.14,meteohub,2013-02-22 02:58:00,
2013-02-21 19:03:00,17.2,7.5,29.96,SE,135,2.0,4.0,65,0.00,,,0.14,meteohub,2013-02-22 03:03:00,
2013-02-21 19:08:00,17.1,7.3,29.96,SE,135,1.0,4.0,65,0.00,,,0.14,meteohub,2013-02-22 03:08:00,
2013-02-21 19:13:00,16.7,7.0,29.97,SE,135,3.0,4.0,65,0.00,,,0.14,meteohub,2013-02-22 03:13:00,
2013-02-21 19:18:00,16.5,7.5,29.97,SE,135,1.0,4.0,67,0.00,,,0.14,meteohub,2013-02-22 03:18:00,
2013-02-21 19:23:00,16.0,7.0,29.97,SE,135,1.0,4.0,67,0.00,,,0.14,meteohub,2013-02-22 03:23:00,
2013-02-21 19:28:00,15.8,7.2,29.98,SE,135,2.0,3.0,68,0.00,,,0.14,meteohub,2013-02-22 03:28:00,
2013-02-21 19:33:00,15.4,6.8,29.97,SE,135,1.0,2.0,68,0.00,,,0.14,meteohub,2013-02-22 03:33:00,
2013-02-21 19:38:00,15.1,6.4,29.98,SE,135,2.0,2.0,68,0.00,,,0.14,meteohub,2013-02-22 03:38:00,
2013-02-21 19:43:00,14.9,6.6,29.99,SE,135,3.0,3.0,69,0.00,,,0.14,meteohub,2013-02-22 03:43:00,
2013-02-21 19:48:00,14.9,6.3,29.99,East,90,2.0,3.0,68,0.00,,,0.14,meteohub,2013-02-22 03:48:00,
2013-02-21 19:53:00,14.5,5.9,29.99,SE,135,2.0,4.0,68,0.00,,,0.14,meteohub,2013-02-22 03:53:00,
2013-02-21 19:58:00,14.5,6.3,29.98,SE,135,2.0,4.0,69,0.00,,,0.14,meteohub,2013-02-22 03:58:00,
2013-02-21 20:03:00,14.5,6.3,29.99,SE,135,4.0,4.0,69,0.00,,,0.14,meteohub,2013-02-22 04:03:00,
2013-02-21 20:08:00,14.5,6.3,29.99,SE,135,1.0,4.0,69,0.00,,,0.14,meteohub,2013-02-22 04:08:00,
2013-02-21 20:13:00,14.2,5.9,29.99,SE,135,2.0,4.0,69,0.00,,,0.14,meteohub,2013-02-22 04:13:00,
2013-02-21 20:18:00,14.0,5.7,29.99,East,90,1.0,4.0,69,0.00,,,0.14,meteohub,2013-02-22 04:18:00,
2013-02-21 20:23:00,14.0,6.1,29.99,SE,135,2.0,4.0,70,0.00,,,0.14,meteohub,2013-02-22 04:23:00,
2013-02-21 20:28:00,14.2,6.4,29.99,SE,135,2.0,4.0,71,0.00,,,0.14,meteohub,2013-02-22 04:28:00,
2013-02-21 20:33:00,14.5,6.6,30.00,SE,135,2.0,4.0,70,0.00,,,0.14,meteohub,2013-02-22 04:33:00,
2013-02-21 20:38:00,14.4,6.1,30.00,SE,135,3.0,4.0,69,0.00,,,0.14,meteohub,2013-02-22 04:38:00,
2013-02-21 20:43:00,14.5,6.3,30.00,SE,135,3.0,4.0,69,0.00,,,0.14,meteohub,2013-02-22 04:43:00,
2013-02-21 20:48:00,15.1,6.8,30.00,SE,135,4.0,4.0,69,0.00,,,0.14,meteohub,2013-02-22 04:48:00,
2013-02-21 20:53:00,15.1,6.1,30.01,SE,135,2.0,4.0,67,0.00,,,0.14,meteohub,2013-02-22 04:53:00,
2013-02-21 20:58:00,14.9,6.3,30.01,SE,135,2.0,4.0,68,0.00,,,0.14,meteohub,2013-02-22 04:58:00,
2013-02-21 21:00:00,14.9,6.3,30.01,SE,135,3.0,4.0,68,0.00,,,0.14,meteohub,2013-02-22 05:00:00,
2013-02-21 21:05:00,14.9,6.3,30.01,SE,135,2.0,4.0,68,0.00,,,0.14,meteohub,2013-02-22 05:05:00,
2013-02-21 21:10:00,14.2,5.0,30.01,East,90,2.0,4.0,66,0.00,,,0.14,meteohub,2013-02-22 05:10:00,
2013-02-21 21:15:00,13.8,5.2,30.01,South,180,1.0,4.0,68,0.00,,,0.14,meteohub,2013-02-22 05:15:00,
2013-02-21 21:20:00,14.0,5.7,30.01,South,180,2.0,4.0,69,0.00,,,0.14,meteohub,2013-02-22 05:20:00,
2013-02-21 21:25:00,14.2,5.9,30.01,SE,135,3.0,4.0,69,0.00,,,0.14,meteohub,2013-02-22 05:25:00,
2013-02-21 21:30:00,14.2,5.5,30.01,East,90,3.0,4.0,68,0.00,,,0.14,meteohub,2013-02-22 05:30:00,
2013-02-21 21:35:00,14.0,5.0,30.01,East,90,4.0,4.0,67,0.00,,,0.14,meteohub,2013-02-22 05:35:00,
2013-02-21 21:40:00,13.1,4.3,30.00,SE,135,2.0,4.0,67,0.00,,,0.14,meteohub,2013-02-22 05:40:00,
2013-02-21 21:45:00,13.1,4.5,30.00,SE,135,4.0,4.0,68,0.00,,,0.14,meteohub,2013-02-22 05:45:00,
2013-02-21 21:50:00,13.1,4.5,30.00,SE,135,2.0,4.0,68,0.00,,,0.14,meteohub,2013-02-22 05:50:00,
2013-02-21 21:55:00,13.1,4.8,30.01,SE,135,2.0,4.0,69,0.00,,,0.14,meteohub,2013-02-22 05:55:00,
2013-02-21 22:00:00,12.6,4.6,30.00,SE,135,2.0,4.0,70,0.00,,,0.14,meteohub,2013-02-22 06:00:00,
2013-02-21 22:05:00,12.7,4.8,30.00,SE,135,2.0,4.0,70,0.00,,,0.14,meteohub,2013-02-22 06:05:00,
2013-02-21 22:10:00,12.9,5.4,30.01,East,90,3.0,3.0,71,0.00,,,0.14,meteohub,2013-02-22 06:10:00,
2013-02-21 22:15:00,12.6,5.0,30.01,SE,135,1.0,3.0,71,0.00,,,0.14,meteohub,2013-02-22 06:15:00,
2013-02-21 22:20:00,12.7,5.4,30.01,SE,135,2.0,3.0,72,0.00,,,0.14,meteohub,2013-02-22 06:20:00,
2013-02-21 22:25:00,13.3,5.9,30.01,SE,135,3.0,3.0,72,0.00,,,0.14,meteohub,2013-02-22 06:25:00,
2013-02-21 22:30:00,13.8,6.1,30.01,SE,135,2.0,4.0,71,0.00,,,0.14,meteohub,2013-02-22 06:30:00,
2013-02-21 22:35:00,14.0,6.3,30.01,SE,135,2.0,4.0,71,0.00,,,0.14,meteohub,2013-02-22 06:35:00,
2013-02-21 22:40:00,13.8,6.1,30.01,SE,135,3.0,4.0,71,0.00,,,0.14,meteohub,2013-02-22 06:40:00,
2013-02-21 22:45:00,13.6,5.7,30.01,East,90,4.0,4.0,70,0.00,,,0.14,meteohub,2013-02-22 06:45:00,
2013-02-21 22:50:00,13.6,5.7,30.01,SE,135,2.0,5.0,70,0.00,,,0.14,meteohub,2013-02-22 06:50:00,
2013-02-21 22:55:00,13.6,6.1,30.01,SE,135,0.0,5.0,71,0.00,,,0.14,meteohub,2013-02-22 06:55:00,
2013-02-21 23:00:00,13.5,5.2,30.01,SE,135,2.0,5.0,69,0.00,,,0.14,meteohub,2013-02-22 07:00:00,
2013-02-21 23:05:00,13.6,5.7,30.01,SE,135,2.0,4.0,70,0.00,,,0.14,meteohub,2013-02-22 07:05:00,
2013-02-21 23:10:00,13.8,5.9,30.00,SE,135,4.0,4.0,70,0.00,,,0.14,meteohub,2013-02-22 07:10:00,
2013-02-21 23:15:00,14.2,6.3,30.00,SE,135,2.0,4.0,70,0.00,,,0.14,meteohub,2013-02-22 07:15:00,
2013-02-21 23:20:00,14.2,6.3,30.01,SE,135,1.0,4.0,70,0.00,,,0.14,meteohub,2013-02-22 07:20:00,
2013-02-21 23:25:00,14.0,5.7,30.00,SE,135,2.0,4.0,69,0.00,,,0.14,meteohub,2013-02-22 07:25:00,
2013-02-21 23:30:00,13.6,5.7,30.01,SE,135,0.0,3.0,70,0.00,,,0.14,meteohub,2013-02-22 07:30:00,
2013-02-21 23:35:00,13.5,5.5,30.01,SE,135,2.0,3.0,70,0.00,,,0.14,meteohub,2013-02-22 07:35:00,
2013-02-21 23:40:00,13.1,4.8,30.01,SE,135,3.0,5.0,69,0.00,,,0.14,meteohub,2013-02-22 07:40:00,
2013-02-21 23:45:00,13.1,5.2,30.01,SE,135,1.0,5.0,70,0.00,,,0.14,meteohub,2013-02-22 07:45:00,
2013-02-21 23:50:00,13.1,5.5,30.01,SE,135,3.0,5.0,71,0.00,,,0.14,meteohub,2013-02-22 07:50:00,
2013-02-21 23:55:00,12.7,4.8,30.01,SE,135,2.0,3.0,70,0.00,,,0.14,meteohub,2013-02-22 07:55:00,